When you browse on this site, cookies collect data to enhance your experience and personalize the content and advertising you see.
Visit our Privacy Policy to learn more. By continuing to use the site, you agree to this use of cookies and data.
  • In Czech Republic
  • List of Countries
  • For 7 days
  • Water Temperature
  • Satellite Maps
  • Weather Map
  • Weather Widgets
  • user-avatar
    Login

    Hourly Weather Bishkek

    Today, 25 March, Monday

    Time Temperature Precipitation Wind Pressure Humidity
    00:00 -18°C° 0 mm 4 mps 481 mmHg 53%
    01:00 -18°C° 0 mm 4 mps 481 mmHg 52%
    02:00 -19°C° 0 mm 4 mps 481 mmHg 52%
    03:00 -18°C° 0 mm 4 mps 481 mmHg 54%
    04:00 -18°C° 0 mm 4 mps 481 mmHg 56%
    05:00 -18°C° 0 mm 4 mps 481 mmHg 57%
    06:00 -16°C° 0 mm 3 mps 482 mmHg 59%
    07:00 -15°C° 0 mm 3 mps 483 mmHg 61%
    08:00 -14°C° 0 mm 3 mps 484 mmHg 64%
    09:00 -12°C° 0 mm 3 mps 485 mmHg 63%
    10:00 -9°C° 0 mm 2 mps 485 mmHg 63%
    11:00 -8°C° 0 mm 2 mps 486 mmHg 63%
    12:00 -8°C° 0.1 mm 2 mps 486 mmHg 64%
    13:00 -7°C° 0.1 mm 2 mps 486 mmHg 65%
    14:00 -7°C° 0.1 mm 2 mps 486 mmHg 66%
    15:00 -7°C° 0.3 mm 2 mps 486 mmHg 68%
    16:00 -7°C° 0.3 mm 1 mps 486 mmHg 70%
    17:00 -7°C° 0.3 mm 1 mps 486 mmHg 72%
    18:00 -9°C° 0.2 mm 2 mps 485 mmHg 73%
    19:00 -12°C° 0.2 mm 3 mps 485 mmHg 75%
    20:00 -13°C° 0.2 mm 3 mps 485 mmHg 77%
    21:00 -15°C° 0 mm 4 mps 484 mmHg 74%
    22:00 -16°C° 0 mm 4 mps 484 mmHg 71%
    23:00 -16°C° 0 mm 4 mps 483 mmHg 68%

    Tomorrow, 26 March, Tuesday

    Time Temperature Precipitation Wind Pressure Humidity
    00:00 -16°C° 0 mm 4 mps 483 mmHg 66%
    01:00 -18°C° 0 mm 5 mps 483 mmHg 64%
    02:00 -18°C° 0 mm 5 mps 483 mmHg 63%
    03:00 -18°C° 0 mm 5 mps 483 mmHg 62%
    04:00 -18°C° 0 mm 5 mps 483 mmHg 62%
    05:00 -18°C° 0 mm 5 mps 483 mmHg 62%
    06:00 -15°C° 0 mm 4 mps 484 mmHg 61%
    07:00 -14°C° 0 mm 4 mps 485 mmHg 60%
    08:00 -12°C° 0 mm 4 mps 486 mmHg 59%
    09:00 -10°C° 0 mm 4 mps 487 mmHg 58%
    10:00 -8°C° 0 mm 4 mps 487 mmHg 57%
    11:00 -7°C° 0 mm 4 mps 488 mmHg 56%
    12:00 -5°C° 0 mm 4 mps 488 mmHg 55%
    13:00 -5°C° 0 mm 4 mps 488 mmHg 55%
    14:00 -4°C° 0 mm 4 mps 488 mmHg 54%
    15:00 -5°C° 0 mm 4 mps 487 mmHg 56%
    16:00 -7°C° 0 mm 4 mps 486 mmHg 57%
    17:00 -7°C° 0 mm 4 mps 486 mmHg 58%
    18:00 -8°C° 0 mm 4 mps 486 mmHg 55%
    19:00 -8°C° 0 mm 5 mps 485 mmHg 51%
    20:00 -10°C° 0 mm 5 mps 485 mmHg 47%
    21:00 -10°C° 0 mm 5 mps 485 mmHg 50%
    22:00 -8°C° 0 mm 5 mps 485 mmHg 53%
    23:00 -8°C° 0 mm 5 mps 485 mmHg 56%

    Day after tomorrow, 27 March, Wednesday

    Time Temperature Precipitation Wind Pressure Humidity
    00:00 -9°C° 0 mm 4 mps 485 mmHg 55%
    01:00 -9°C° 0 mm 4 mps 484 mmHg 54%
    02:00 -8°C° 0 mm 3 mps 484 mmHg 53%
    03:00 -8°C° 0.1 mm 3 mps 484 mmHg 57%
    04:00 -8°C° 0.1 mm 2 mps 484 mmHg 61%
    05:00 -8°C° 0.1 mm 2 mps 484 mmHg 64%
    06:00 -8°C° 0.2 mm 2 mps 485 mmHg 65%
    07:00 -7°C° 0.2 mm 2 mps 485 mmHg 66%
    08:00 -7°C° 0.2 mm 2 mps 486 mmHg 66%
    09:00 -6°C° 0.1 mm 2 mps 486 mmHg 68%
    10:00 -5°C° 0.1 mm 2 mps 486 mmHg 70%
    11:00 -4°C° 0.1 mm 2 mps 487 mmHg 73%
    12:00 -4°C° 0.1 mm 2 mps 487 mmHg 74%
    13:00 -4°C° 0.1 mm 2 mps 487 mmHg 76%
    14:00 -3°C° 0.1 mm 2 mps 486 mmHg 77%
    15:00 -4°C° 0.4 mm 2 mps 486 mmHg 77%
    16:00 -2°C° 0.4 mm 1 mps 486 mmHg 78%
    17:00 -2°C° 0.4 mm 1 mps 486 mmHg 78%
    18:00 -3°C° 0.5 mm 1 mps 486 mmHg 79%
    19:00 -5°C° 0.5 mm 2 mps 486 mmHg 79%
    20:00 -5°C° 0.5 mm 2 mps 486 mmHg 80%
    21:00 -6°C° 0.3 mm 3 mps 486 mmHg 79%
    22:00 -6°C° 0.3 mm 3 mps 486 mmHg 79%
    23:00 -6°C° 0.3 mm 3 mps 486 mmHg 78%

    28 March, Thursday

    Time Temperature Precipitation Wind Pressure Humidity
    00:00 -6°C° 0.4 mm 3 mps 486 mmHg 78%
    01:00 -6°C° 0.4 mm 3 mps 486 mmHg 79%
    02:00 -6°C° 0.4 mm 3 mps 486 mmHg 79%
    03:00 -6°C° 0.4 mm 3 mps 486 mmHg 79%
    04:00 -6°C° 0.4 mm 3 mps 486 mmHg 78%
    05:00 -5°C° 0.4 mm 2 mps 486 mmHg 77%
    06:00 -5°C° 0.7 mm 2 mps 486 mmHg 78%
    07:00 -5°C° 0.7 mm 2 mps 486 mmHg 80%
    08:00 -4°C° 0.7 mm 2 mps 487 mmHg 81%
    09:00 -4°C° 0.5 mm 2 mps 487 mmHg 82%
    10:00 -1°C° 0.5 mm 1 mps 488 mmHg 83%
    11:00 -1°C° 0.5 mm 1 mps 488 mmHg 84%
    12:00 -1°C° 0.4 mm 1 mps 488 mmHg 85%
    13:00 -1°C° 0.4 mm 1 mps 488 mmHg 85%
    14:00 -1°C° 0.4 mm 1 mps 488 mmHg 86%
    15:00 -1°C° 1 mm 1 mps 488 mmHg 87%
    16:00 -2°C° 1 mm 1 mps 487 mmHg 88%
    17:00 -3°C° 1 mm 0 mps 487 mmHg 89%
    18:00 -2°C° 0.4 mm 1 mps 487 mmHg 87%
    19:00 -3°C° 0.4 mm 1 mps 487 mmHg 86%
    20:00 -5°C° 0.4 mm 2 mps 487 mmHg 85%
    21:00 -6°C° 0.1 mm 2 mps 486 mmHg 81%
    22:00 -7°C° 0.1 mm 3 mps 486 mmHg 77%
    23:00 -7°C° 0.1 mm 3 mps 485 mmHg 74%

    29 March, Friday

    Time Temperature Precipitation Wind Pressure Humidity
    00:00 -8°C° 0 mm 3 mps 485 mmHg 72%
    01:00 -8°C° 0 mm 3 mps 484 mmHg 70%
    02:00 -9°C° 0 mm 3 mps 484 mmHg 69%
    03:00 -9°C° 0 mm 3 mps 484 mmHg 66%
    04:00 -10°C° 0 mm 4 mps 484 mmHg 64%
    05:00 -10°C° 0 mm 4 mps 483 mmHg 62%
    06:00 -8°C° 0 mm 3 mps 484 mmHg 62%
    07:00 -6°C° 0 mm 3 mps 485 mmHg 63%
    08:00 -5°C° 0 mm 3 mps 486 mmHg 63%
    09:00 -5°C° 0 mm 3 mps 486 mmHg 67%
    10:00 -3°C° 0 mm 2 mps 486 mmHg 71%
    11:00 -2°C° 0 mm 2 mps 487 mmHg 74%
    12:00 -2°C° 0 mm 2 mps 486 mmHg 77%
    13:00 -2°C° 0 mm 2 mps 486 mmHg 80%
    14:00 -2°C° 0 mm 2 mps 486 mmHg 83%
    15:00 -3°C° 0 mm 2 mps 485 mmHg 83%
    16:00 -3°C° 0 mm 2 mps 485 mmHg 83%
    17:00 -4°C° 0 mm 2 mps 485 mmHg 83%
    18:00 -4°C° 0 mm 2 mps 484 mmHg 84%
    19:00 -5°C° 0 mm 2 mps 484 mmHg 85%
    20:00 -6°C° 0 mm 2 mps 483 mmHg 87%
    21:00 -6°C° 0 mm 2 mps 483 mmHg 77%
    22:00 -6°C° 0 mm 2 mps 483 mmHg 67%
    23:00 -7°C° 0 mm 2 mps 483 mmHg 58%

    30 March, Saturday

    Time Temperature Precipitation Wind Pressure Humidity
    00:00 -7°C° 0 mm 2 mps 482 mmHg 50%
    01:00 -8°C° 0 mm 3 mps 482 mmHg 42%
    02:00 -9°C° 0 mm 3 mps 481 mmHg 34%
    03:00 -9°C° 0 mm 3 mps 481 mmHg 35%
    04:00 -9°C° 0 mm 3 mps 481 mmHg 36%
    05:00 -9°C° 0 mm 3 mps 481 mmHg 36%
    06:00 -7°C° 0 mm 2 mps 482 mmHg 42%
    07:00 -7°C° 0 mm 2 mps 483 mmHg 48%
    08:00 -6°C° 0 mm 2 mps 484 mmHg 55%
    09:00 -6°C° 0 mm 2 mps 484 mmHg 62%
    10:00 -5°C° 0 mm 2 mps 485 mmHg 70%
    11:00 -5°C° 0 mm 2 mps 486 mmHg 77%
    12:00 -6°C° 0.4 mm 2 mps 485 mmHg 82%
    13:00 -6°C° 0.4 mm 2 mps 485 mmHg 86%
    14:00 -7°C° 0.4 mm 2 mps 485 mmHg 91%
    15:00 -6°C° 0.7 mm 1 mps 485 mmHg 91%
    16:00 -7°C° 0.7 mm 1 mps 485 mmHg 92%
    17:00 -7°C° 0.7 mm 1 mps 486 mmHg 92%
    18:00 -7°C° 0.7 mm 1 mps 486 mmHg 93%
    19:00 -8°C° 0.7 mm 1 mps 486 mmHg 94%
    20:00 -8°C° 0.7 mm 1 mps 486 mmHg 94%
    21:00 -8°C° 0.5 mm 1 mps 486 mmHg 94%
    22:00 -9°C° 0.5 mm 1 mps 486 mmHg 93%
    23:00 -9°C° 0.5 mm 1 mps 485 mmHg 92%
    Show more